Location: Newark
(33.2833°N, 8.3333°W)
Time: 13:12:13
(UTC+00:00)

Hubble Space Telescope - Pass Details

Date: 22 September 2019
Orbit: 536 x 540 km, 28.5° (Epoch: 16 October)

Event Time Altitude Azimuth Distance (km) Brightness Sun altitude
Exits shadow 05:51:37 - 243° (WSW) 2,028 3.1 -7.0°
Reaches altitude 10° 05:52:50 10° 229° (SW) 1,777 2.9 -6.7°
Maximum altitude 05:54:34 12° 204° (SSW) 1,627 3.0 -6.4°
Drops below altitude 10° 05:56:19 10° 179° (S) 1,775 3.4 -6.0°
Sets 05:59:45 0° 149° (SSE) 2,664 4.7 -5.3°
